Temp
67 70 71 76 78 79 79 79 79 79 81 81 80 81 81 80 80 79 79 78 78 78 78 78 77 78 78 79 78 78 77 77 72 70 70 73 70 69 74 74 74 74 73 71 73 69 64 62 65 69 70 71 72 72 74 74 74 74 75 75 77 78 79
69 73 74 77 77 78 77 78 78 81 80 80 81 80 80 81 79 79 79 78 78 79 80 80 79 80 78 76 75 76 75 76 74 74 71 71 74 71 72 72 73 72 71 73 72 69 65 65 65 66 64 69 69 70 72 73 74 75 76 77 79 79 76
72 73 76 76 77 77 76 77 78 78 80 78 79 80 80 80 80 79 79 79 78 79 79 80 79 78 77 76 76 75 76 75 75 76 74 72 74 72 72 73 72 67 66 67 66 66 66 67 66 67 67 65 63 67 70 71 74 76 77 76 77 79 78
70 71 72 73 76 75 76 77 77 78 79 79 79 79 79 80 79 79 79 79 79 78 79 80 78 79 77 76 76 76 75 75 75 75 75 74 75 74 72 73 72 71 67 66 65 70 67 62 63 67 68 69 68 65 69 74 75 77 78 78 78 77 77
69 71 70 70 75 76 76 77 78 78 78 78 78 78 78 80 78 78 79 79 79 78 78 79 79 79 78 77 76 75 75 75 76 75 74 73 74 75 72 69 69 70 70 71 70 72 70 68 66 66 68 70 72 73 75 74 79 78 78 79 79 78 78
70 72 73 75 77 77 78 77 77 77 77 76 77 77 77 77 78 77 77 78 78 78 78 79 78 78 78 77 76 76 75 75 75 75 74 73 74 73 73 72 70 68 70 70 72 71 72 71 69 66 70 75 68 71 76 78 75 79 80 79 80 80 80
71 75 76 76 77 78 78 77 78 78 77 76 76 76 77 78 78 78 78 79 79 79 78 78 78 78 78 78 77 76 75 75 75 75 74 74 74 74 73 71 73 71 74 74 70 70 71 71 71 70 70 73 74 74 75 75 77 76 77 81 81 81 80
74 76 77 78 78 78 79 78 78 79 78 78 78 78 78 78 78 78 78 79 78 78 78 77 78 77 77 78 78 76 76 76 76 75 74 71 72 75 74 74 71 73 75 78 74 73 75 75 74 73 72 68 69 72 71 76 76 76 75 79 82 81 80
77 77 77 78 79 79 79 79 78 79 79 79 79 79 78 79 78 78 78 78 78 78 78 78 78 78 77 76 77 75 74 77 75 74 74 73 72 73 74 75 74 74 75 74 74 72 74 74 74 72 74 72 69 67 71 70 73 74 79 76 79 81 79
76 77 77 77 78 79 79 79 79 79 79 79 79 78 78 78 78 78 78 78 77 78 78 78 79 79 78 76 76 75 74 76 76 75 74 73 72 71 72 74 74 74 73 73 71 73 73 73 71 71 70 73 74 71 68 67 69 69 75 79 75 77 80
77 77 78 77 77 78 78 78 79 78 78 79 79 78 78 78 78 78 78 77 77 78 77 78 79 79 77 76 76 77 76 77 75 76 75 74 73 76 75 74 73 74 73 72 69 73 72 70 68 70 69 75 76 73 71 68 67 72 73 77 78 76 78
77 77 77 77 77 77 77 78 77 78 78 78 78 77 77 78 77 78 77 77 77 77 78 78 78 78 78 77 76 76 77 77 76 76 76 76 76 75 75 75 75 73 73 70 74 71 72 70 68 70 75 78 77 75 73 72 67 72 77 73 77 80 78
77 76 76 77 77 77 78 78 77 77 77 78 78 78 78 78 78 78 78 78 77 78 78 78 78 79 77 77 76 76 76 76 76 76 76 77 78 76 75 75 74 74 73 74 75 75 73 74 73 74 75 76 76 77 74 73 71 69 76 76 77 79 79
75 77 77 77 77 77 77 77 77 78 79 77 78 78 78 78 79 78 79 79 79 78 77 77 78 78 77 76 76 76 77 77 77 76 76 75 77 76 77 76 76 76 77 76 74 76 76 74 75 74 75 75 75 77 75 73 71 70 74 78 77 78 78
75 77 76 76 76 76 76 77 77 78 76 78 78 79 79 79 79 79 79 80 79 80 78 78 78 78 78 76 76 77 77 78 78 78 76 76 76 76 75 75 76 76 78 76 76 79 80 75 75 74 73 74 78 77 77 77 73 72 69 74 76 79 77
75 76 75 75 75 76 75 76 78 76 77 77 79 79 79 79 79 80 79 79 80 79 79 78 78 78 77 77 77 77 78 78 77 76 75 76 78 77 75 75 76 76 76 75 75 75 76 78 78 76 76 79 79 78 80 81 74 72 71 72 75 76 75
74 74 74 75 75 76 75 77 78 77 77 77 78 78 79 79 79 79 78 79 79 79 79 77 78 79 78 78 78 77 78 77 78 77 77 78 80 77 76 75 75 75 75 74 75 75 77 77 76 77 77 79 78 78 78 79 76 75 73 71 74 78 77
72 72 73 75 74 75 76 76 77 78 77 77 78 78 78 79 79 79 77 79 79 79 78 78 78 78 78 78 78 78 78 78 78 78 78 78 76 78 76 75 76 76 75 74 73 75 77 75 79 78 78 79 79 79 78 79 78 77 74 72 73 77 77
70 71 72 74 74 75 76 77 77 77 78 78 77 77 78 79 79 79 79 80 80 79 80 79 79 79 79 78 78 77 78 78 78 79 78 78 79 78 76 75 76 76 75 74 73 75 76 76 79 78 77 79 81 78 77 77 78 78 76 75 73 73 76
68 70 72 74 74 75 76 77 77 77 78 77 77 77 78 78 78 79 80 80 79 79 79 79 79 78 79 79 78 78 77 77 78 78 79 79 79 79 78 77 73 74 72 74 74 75 75 76 77 77 77 77 81 76 75 76 78 77 76 76 75 74 75
67 72 72 74 75 76 77 76 77 77 78 77 76 78 78 78 78 80 79 79 79 79 78 79 79 78 79 78 77 77 77 76 76 77 77 79 78 78 78 76 76 71 70 74 75 75 75 75 76 76 77 77 78 75 74 75 75 76 75 74 75 74 75
65 71 72 74 75 75 75 75 76 77 76 76 76 78 78 78 78 78 79 78 78 78 75 69 62 60 66 76 78 76 77 77 77 76 76 77 77 78 78 78 75 67 65 62 54 57 60 63 75 74 75 77 76 75 75 75 74 74 74 74 73 74 74
67 72 71 72 74 74 74 74 75 74 75 76 76 77 77 77 77 76 76 76 76 72 68 62 48 42 45 58 70 78 76 77 77 77 76 76 76 78 78 76 71 60 57 57 55 52 51 52 54 64 71 75 75 74 74 73 74 74 73 72 73 73 71
70 71 72 73 73 74 75 74 73 73 74 75 75 76 76 76 76 76 76 74 70 67 62 54 40 40 41 40 58 73 75 76 77 77 76 76 76 76 77 77 75 70 67 65 63 47 49 49 50 48 47 49 56 68 74 72 73 74 73 73 73 73 73
70 71 70 73 73 73 73 73 72 71 70 71 73 74 74 73 71 69 68 67 65 62 57 43 39 40 40 40 44 60 74 76 75 76 77 76 77 77 76 76 75 75 75 73 75 70 62 50 50 49 47 47 47 45 48 65 71 72 73 73 72 73 73
61 62 65 66 67 67 68 68 67 67 65 67 69 69 69 67 66 65 65 64 62 60 57 41 40 39 41 39 41 50 74 77 75 76 76 76 77 77 76 76 75 75 76 64 72 76 74 67 48 41 45 48 48 47 49 47 49 64 70 70 72 72 73
58 58 59 60 60 61 62 63 63 64 65 65 65 65 65 64 64 64 64 63 60 57 52 42 40 39 41 38 39 44 72 76 75 77 76 76 75 74 75 75 75 74 75 74 75 75 76 75 70 66 67 70 73 63 47 45 44 42 52 68 70 70 74
55 55 56 56 57 57 57 58 60 60 59 60 61 60 60 61 62 64 65 63 60 56 50 39 40 40 40 40 39 45 72 73 75 75 75 75 75 75 75 75 74 75 75 76 70 66 75 75 75 74 73 73 74 74 74 73 70 72 71 71 72 73 73
55 55 55 55 54 54 54 56 56 57 59 58 61 62 63 65 64 64 64 63 61 58 53 39 39 40 40 40 42 65 73 72 72 73 73 74 74 76 76 75 75 74 75 66 48 39 46 63 72 73 72 73 74 74 75 69 64 65 72 74 75 75 76
55 56 56 55 55 54 54 54 56 59 57 57 57 58 59 60 62 62 62 62 60 59 55 43 39 40 41 39 49 69 72 72 73 72 72 73 74 74 74 74 72 73 66 59 42 39 40 47 69 70 71 72 72 74 73 75 57 52 55 54 46 42 40
51 52 54 54 53 53 53 54 54 56 56 57 57 56 56 55 55 56 57 58 60 58 55 45 39 40 41 39 46 64 71 72 72 72 73 73 74 75 67 55 66 71 64 53 39 40 39 52 66 69 69 69 70 70 72 74 71 63 47 43 45 44 43
50 51 51 53 55 54 55 55 55 55 56 58 59 59 59 57 56 55 54 55 55 55 53 48 40 40 40 40 47 62 69 72 71 71 72 73 73 74 67 51 45 49 50 44 37 39 38 48 60 64 66 66 66 67 69 67 63 62 63 63 64 64 60
53 53 52 53 55 56 57 56 58 59 60 61 60 61 61 60 58 57 57 59 59 59 56 51 46 39 39 41 39 54 67 68 67 67 69 70 70 72 71 57 47 37 38 37 37 36 38 37 50 56 59 63 64 64 60 59 63 65 65 62 63 64 66
51 52 54 54 55 56 57 56 56 57 57 59 60 61 60 60 59 59 61 61 60 58 58 56 46 40 40 40 39 44 64 61 60 61 64 66 68 69 72 66 56 40 38 37 38 37 37 37 38 50 55 59 61 50 47 59 60 52 63 66 67 65 67
52 52 54 56 56 55 56 58 58 57 58 58 58 58 59 61 61 60 60 61 61 58 55 52 54 42 40 40 39 38 54 54 50 55 59 64 66 68 69 68 56 45 39 39 39 38 37 38 37 46 54 45 41 40 49 53 57 61 64 66 67 67 66
52 53 53 54 54 54 56 57 58 58 58 58 58 58 59 60 61 62 62 63 63 62 59 55 47 50 40 40 37 39 36 46 40 53 58 59 61 63 66 65 56 43 40 40 40 39 39 37 40 50 42 40 40 38 42 53 56 57 59 61 60 60 61
54 54 55 55 55 54 55 57 58 58 58 59 59 59 60 60 61 62 62 62 63 63 63 59 48 46 46 37 40 37 38 35 35 50 53 57 59 61 61 56 51 40 41 41 40 40 39 38 45 40 39 39 38 39 48 54 56 57 55 56 57 59 60
MSLP
1015.61 1015.69 1015.81 1015.01 1014.77 1014.73 1014.85 1015.13 1015.25 1015.45 1015.45 1015.57 1015.77 1015.89 1016.05 1016.33 1016.57 1016.73 1016.89 1017.05 1017.29 1017.45 1017.37 1017.53 1017.73 1017.69 1017.81 1017.81 1017.97 1018.05 1018.29 1018.45 1019.01 1019.41 1019.49 1019.21 1019.77 1020.21 1019.49 1019.57 1019.69 1019.73 1019.89 1020.33 1020.01 1020.93 1021.77 1022.25 1022.17 1021.69 1021.73 1021.77 1021.81 1021.85 1021.73 1021.85 1022.01 1022.09 1022.09 1021.97 1021.93 1021.81 1021.73
1015.77 1015.37 1015.25 1014.89 1014.89 1014.77 1015.05 1015.13 1015.29 1015.33 1015.49 1015.57 1015.73 1015.97 1016.17 1016.33 1016.61 1016.77 1016.93 1017.09 1017.29 1017.25 1017.29 1017.41 1017.53 1017.61 1017.77 1018.05 1018.25 1018.33 1018.49 1018.49 1018.73 1018.89 1019.49 1019.53 1019.09 1019.89 1019.81 1019.73 1019.73 1020.09 1020.33 1020.09 1020.37 1020.73 1021.65 1021.69 1021.89 1022.09 1022.49 1022.13 1022.13 1022.17 1022.05 1021.97 1022.01 1021.85 1021.69 1021.65 1021.57 1021.85 1022.13
1015.09 1015.21 1014.77 1014.93 1014.93 1014.97 1015.29 1015.37 1015.37 1015.49 1015.61 1015.89 1015.97 1016.05 1016.29 1016.41 1016.61 1016.73 1016.93 1017.09 1017.21 1017.21 1017.21 1017.29 1017.49 1017.73 1017.85 1018.09 1018.17 1018.29 1018.33 1018.49 1018.57 1018.61 1018.93 1019.41 1019.17 1019.53 1019.61 1019.49 1019.89 1020.69 1020.85 1021.01 1021.21 1021.17 1021.49 1021.45 1021.61 1021.85 1022.01 1022.45 1022.81 1022.69 1022.25 1022.21 1021.97 1021.89 1021.93 1021.97 1022.01 1022.01 1022.21
1015.01 1015.13 1015.17 1015.41 1015.25 1015.45 1015.37 1015.45 1015.53 1015.61 1015.65 1015.89 1015.97 1016.09 1016.29 1016.45 1016.69 1016.77 1016.89 1017.01 1017.09 1017.21 1017.29 1017.33 1017.61 1017.65 1017.93 1018.13 1018.21 1018.29 1018.37 1018.57 1018.61 1018.73 1018.85 1018.93 1019.01 1019.21 1019.57 1019.61 1019.85 1020.13 1020.77 1021.05 1021.29 1020.65 1021.09 1021.81 1022.01 1021.69 1021.81 1021.93 1022.25 1022.85 1022.45 1021.85 1021.77 1021.77 1021.81 1021.93 1022.01 1022.21 1022.25
1015.73 1015.25 1015.33 1015.81 1015.41 1015.17 1015.17 1015.41 1015.45 1015.65 1015.85 1016.01 1016.17 1016.29 1016.41 1016.33 1016.73 1016.85 1016.89 1017.01 1017.17 1017.29 1017.37 1017.41 1017.53 1017.65 1017.81 1018.01 1018.21 1018.33 1018.45 1018.53 1018.53 1018.77 1018.85 1019.13 1019.17 1019.13 1019.53 1019.89 1020.17 1020.29 1020.45 1020.41 1020.61 1020.33 1020.69 1021.33 1021.65 1021.81 1021.61 1021.53 1021.73 1021.85 1021.73 1021.69 1021.17 1021.57 1021.81 1021.89 1021.97 1022.17 1022.25
1015.49 1014.97 1014.85 1014.81 1014.61 1014.69 1014.81 1015.17 1015.45 1015.77 1015.97 1016.33 1016.37 1016.49 1016.53 1016.61 1016.73 1016.97 1017.05 1017.17 1017.25 1017.33 1017.37 1017.41 1017.53 1017.65 1017.85 1018.01 1018.21 1018.37 1018.41 1018.57 1018.61 1018.69 1018.93 1019.09 1019.09 1019.29 1019.45 1019.69 1020.05 1020.61 1020.41 1020.21 1020.17 1020.37 1020.29 1020.81 1021.21 1021.53 1021.33 1020.85 1021.77 1021.65 1021.33 1021.17 1021.69 1021.57 1021.53 1021.77 1021.85 1022.01 1022.17
1015.05 1014.21 1014.09 1014.21 1014.21 1014.33 1014.61 1014.97 1015.21 1015.45 1015.85 1016.01 1016.25 1016.41 1016.41 1016.53 1016.61 1016.77 1016.85 1016.97 1017.05 1017.21 1017.33 1017.49 1017.61 1017.69 1017.85 1018.05 1018.17 1018.37 1018.45 1018.49 1018.53 1018.69 1018.89 1019.01 1018.97 1019.09 1019.33 1019.81 1019.73 1020.09 1019.77 1019.81 1020.33 1020.37 1020.49 1020.61 1020.85 1021.05 1021.05 1020.89 1020.89 1021.37 1021.61 1021.69 1021.49 1021.81 1021.93 1021.53 1021.61 1021.85 1022.17
1014.45 1014.05 1013.97 1013.97 1014.13 1014.33 1014.57 1014.89 1015.01 1015.21 1015.53 1015.73 1015.93 1016.01 1016.21 1016.41 1016.53 1016.69 1016.81 1016.97 1017.13 1017.25 1017.37 1017.57 1017.69 1017.81 1017.89 1017.93 1018.05 1018.29 1018.33 1018.37 1018.49 1018.61 1018.85 1019.21 1019.21 1019.09 1019.13 1019.33 1019.77 1019.61 1019.53 1019.17 1019.65 1020.05 1020.01 1020.13 1020.33 1020.49 1020.69 1021.57 1021.61 1021.41 1021.73 1021.25 1021.49 1021.61 1021.97 1021.69 1021.57 1021.89 1022.21
1013.93 1013.89 1013.89 1013.93 1014.05 1014.25 1014.61 1014.93 1015.09 1015.21 1015.37 1015.61 1015.73 1015.93 1016.17 1016.29 1016.57 1016.73 1016.89 1017.05 1017.17 1017.33 1017.41 1017.49 1017.65 1017.73 1017.93 1018.13 1018.05 1018.25 1018.49 1018.25 1018.57 1018.73 1018.77 1019.05 1019.17 1019.13 1019.09 1019.13 1019.45 1019.61 1019.53 1019.69 1019.77 1020.17 1020.05 1020.13 1020.21 1020.41 1020.41 1020.85 1021.45 1022.17 1021.45 1021.73 1021.57 1021.73 1021.45 1022.01 1021.85 1021.97 1022.49
1013.97 1013.97 1014.05 1014.17 1014.25 1014.41 1014.69 1014.93 1015.09 1015.21 1015.37 1015.57 1015.85 1016.05 1016.29 1016.37 1016.53 1016.65 1016.85 1017.09 1017.33 1017.37 1017.45 1017.49 1017.57 1017.53 1017.85 1018.13 1018.05 1018.17 1018.57 1018.41 1018.41 1018.61 1018.77 1018.97 1019.13 1019.29 1019.21 1019.17 1019.33 1019.53 1019.65 1019.89 1020.17 1020.25 1020.09 1020.25 1020.33 1020.61 1020.81 1020.61 1020.45 1021.13 1021.81 1022.13 1021.85 1022.21 1021.81 1021.61 1022.33 1022.45 1022.37
1013.77 1013.89 1014.01 1014.29 1014.49 1014.69 1014.89 1015.01 1015.13 1015.45 1015.61 1015.69 1015.97 1016.25 1016.33 1016.53 1016.61 1016.73 1016.93 1017.21 1017.33 1017.41 1017.53 1017.53 1017.49 1017.57 1017.89 1018.09 1018.05 1018.01 1018.13 1018.13 1018.37 1018.41 1018.49 1018.89 1018.97 1018.69 1018.81 1019.13 1019.45 1019.49 1019.65 1019.89 1020.77 1020.05 1020.13 1020.33 1020.57 1020.69 1021.13 1020.17 1020.13 1020.73 1021.13 1021.81 1022.17 1021.69 1021.89 1021.53 1021.65 1022.45 1022.45
1013.65 1013.81 1014.09 1014.37 1014.65 1014.85 1015.01 1015.21 1015.45 1015.57 1015.69 1015.89 1016.17 1016.41 1016.53 1016.65 1016.69 1016.77 1016.97 1017.25 1017.37 1017.41 1017.45 1017.53 1017.57 1017.69 1017.89 1018.09 1018.13 1018.21 1018.09 1018.13 1018.33 1018.41 1018.33 1018.37 1018.41 1018.61 1018.81 1018.97 1019.09 1019.57 1019.65 1020.09 1019.89 1020.29 1020.05 1020.49 1020.89 1021.13 1020.25 1019.93 1020.05 1020.33 1020.61 1020.85 1022.17 1021.65 1021.25 1021.97 1021.61 1021.77 1022.29
1013.73 1014.01 1014.29 1014.53 1014.81 1014.97 1015.09 1015.33 1015.61 1015.81 1015.93 1016.01 1016.25 1016.45 1016.57 1016.65 1016.81 1016.85 1017.01 1017.13 1017.37 1017.37 1017.49 1017.57 1017.61 1017.65 1017.89 1018.01 1018.21 1018.25 1018.25 1018.29 1018.37 1018.53 1018.57 1018.37 1018.45 1018.65 1018.81 1018.97 1019.13 1019.33 1019.53 1019.53 1019.49 1019.45 1019.85 1020.09 1020.41 1020.37 1020.29 1020.29 1020.29 1019.93 1020.25 1020.45 1020.89 1022.09 1021.29 1021.37 1021.61 1021.77 1022.09
1013.85 1014.05 1014.37 1014.57 1014.81 1015.01 1015.21 1015.45 1015.69 1015.77 1015.89 1016.17 1016.33 1016.53 1016.57 1016.69 1016.73 1016.89 1017.01 1017.13 1017.37 1017.41 1017.57 1017.65 1017.65 1017.69 1017.89 1018.09 1018.25 1018.29 1018.29 1018.41 1018.45 1018.57 1018.57 1018.73 1018.61 1018.65 1018.69 1018.81 1018.89 1019.01 1018.93 1019.17 1019.45 1019.33 1019.53 1019.97 1019.93 1020.13 1020.09 1020.25 1020.13 1019.89 1019.97 1020.21 1021.01 1021.81 1021.53 1021.13 1021.49 1021.77 1021.97
1013.85 1014.09 1014.57 1014.73 1014.97 1015.17 1015.33 1015.49 1015.69 1015.85 1016.13 1016.21 1016.37 1016.49 1016.57 1016.69 1016.73 1016.85 1016.97 1017.13 1017.25 1017.33 1017.57 1017.69 1017.65 1017.69 1017.81 1018.13 1018.21 1018.21 1018.25 1018.21 1018.21 1018.29 1018.53 1018.73 1018.69 1018.73 1018.77 1018.85 1018.85 1018.93 1018.85 1019.17 1019.21 1019.13 1019.01 1019.65 1019.97 1020.25 1020.37 1020.13 1019.77 1019.89 1019.53 1019.61 1020.85 1021.49 1022.13 1021.77 1021.69 1021.49 1022.09
1014.01 1014.25 1014.61 1014.85 1015.09 1015.29 1015.45 1015.57 1015.65 1015.97 1016.17 1016.33 1016.33 1016.37 1016.53 1016.69 1016.77 1016.85 1016.97 1017.01 1017.17 1017.45 1017.57 1017.69 1017.69 1017.69 1017.77 1018.05 1018.17 1018.17 1018.09 1018.01 1018.17 1018.45 1018.69 1018.61 1018.53 1018.65 1018.89 1018.85 1018.89 1018.89 1018.97 1019.21 1019.25 1019.33 1019.25 1019.21 1019.45 1019.89 1019.93 1019.41 1019.41 1019.81 1019.49 1019.01 1020.37 1021.45 1021.97 1022.05 1021.61 1021.77 1022.09
1014.13 1014.41 1014.73 1014.93 1015.29 1015.37 1015.57 1015.61 1015.73 1015.93 1016.17 1016.37 1016.41 1016.41 1016.53 1016.69 1016.81 1016.93 1017.05 1017.13 1017.25 1017.57 1017.61 1017.81 1017.81 1017.69 1017.77 1017.85 1018.01 1018.17 1018.13 1018.21 1018.25 1018.33 1018.37 1018.33 1018.17 1018.57 1018.85 1018.89 1018.89 1018.93 1019.09 1019.29 1019.37 1019.37 1019.25 1019.33 1019.45 1019.57 1019.53 1019.25 1019.53 1019.85 1019.61 1019.41 1020.09 1020.77 1021.49 1021.93 1021.65 1021.45 1021.81
1014.41 1014.61 1014.81 1014.89 1015.29 1015.41 1015.41 1015.69 1015.77 1015.93 1016.13 1016.37 1016.41 1016.61 1016.81 1016.73 1016.93 1017.01 1017.21 1017.25 1017.41 1017.57 1017.73 1017.81 1017.81 1017.77 1017.77 1017.81 1017.89 1017.93 1018.13 1018.09 1018.17 1018.17 1018.17 1018.29 1018.37 1018.41 1018.77 1018.81 1018.77 1018.93 1018.97 1019.21 1019.41 1019.37 1019.21 1019.45 1019.13 1019.21 1019.45 1019.33 1019.53 1019.69 1019.85 1019.73 1019.85 1020.33 1021.13 1021.57 1021.69 1021.05 1021.25
1014.61 1014.85 1014.93 1015.05 1015.25 1015.37 1015.45 1015.69 1015.93 1015.97 1016.13 1016.41 1016.53 1016.65 1016.77 1016.77 1016.93 1017.05 1017.17 1017.13 1017.33 1017.53 1017.57 1017.69 1017.77 1017.85 1017.89 1017.93 1017.97 1018.09 1017.97 1018.13 1018.21 1018.17 1018.45 1018.45 1018.37 1018.41 1018.69 1018.77 1018.57 1018.69 1018.93 1019.09 1019.33 1019.21 1019.21 1019.29 1019.05 1019.25 1019.49 1019.29 1019.13 1019.73 1020.13 1020.17 1019.89 1019.85 1020.61 1021.05 1021.37 1021.49 1021.09
1014.69 1014.97 1015.05 1015.13 1015.33 1015.45 1015.61 1015.65 1015.85 1016.05 1016.21 1016.49 1016.73 1016.77 1016.77 1016.89 1016.97 1017.05 1017.05 1017.09 1017.33 1017.49 1017.57 1017.69 1017.73 1017.85 1017.85 1017.97 1018.05 1018.25 1018.37 1018.33 1018.29 1018.29 1018.33 1018.25 1018.33 1018.37 1018.45 1018.61 1018.97 1019.01 1019.25 1019.17 1019.17 1019.21 1019.21 1019.33 1019.21 1019.33 1019.33 1019.45 1018.93 1019.69 1020.21 1020.41 1020.25 1020.29 1020.41 1020.61 1020.89 1021.09 1021.21
1015.01 1014.97 1015.21 1015.25 1015.29 1015.41 1015.49 1015.73 1015.85 1016.01 1016.17 1016.57 1016.81 1016.81 1016.93 1017.01 1017.09 1016.97 1017.05 1017.25 1017.37 1017.57 1017.81 1017.85 1017.97 1018.05 1017.93 1017.93 1018.21 1018.29 1018.45 1018.53 1018.49 1018.53 1018.49 1018.33 1018.45 1018.65 1018.53 1018.69 1018.73 1019.41 1019.81 1019.17 1019.17 1019.25 1019.17 1019.45 1019.29 1019.41 1019.33 1019.45 1019.25 1019.69 1020.21 1020.33 1020.41 1020.41 1020.73 1020.77 1020.65 1021.01 1021.09
1015.41 1015.37 1015.33 1015.29 1015.33 1015.45 1015.65 1015.77 1015.93 1016.13 1016.41 1016.69 1016.73 1016.81 1016.89 1017.01 1017.17 1017.29 1017.41 1017.45 1017.69 1017.81 1018.17 1018.77 1019.49 1019.69 1019.01 1018.33 1018.17 1018.45 1018.41 1018.57 1018.45 1018.65 1018.77 1018.65 1018.65 1018.65 1018.61 1018.65 1019.01 1019.69 1020.01 1019.81 1019.89 1019.77 1019.69 1019.57 1019.57 1019.73 1019.69 1019.69 1019.81 1019.89 1020.17 1020.33 1020.53 1020.65 1020.65 1020.77 1020.97 1020.85 1021.01
1015.77 1015.37 1015.49 1015.61 1015.53 1015.69 1015.93 1016.01 1016.21 1016.45 1016.69 1016.85 1016.93 1016.97 1017.13 1017.25 1017.37 1017.65 1017.81 1017.93 1018.09 1018.53 1019.09 1019.69 1020.57 1020.37 1020.21 1019.65 1018.89 1018.29 1018.53 1018.49 1018.61 1018.49 1018.69 1018.65 1018.85 1018.69 1018.65 1018.93 1019.53 1019.77 1020.05 1020.09 1020.25 1020.25 1019.93 1019.85 1020.01 1020.17 1020.17 1020.05 1020.13 1020.29 1020.41 1020.49 1020.49 1020.45 1020.57 1020.89 1020.93 1020.97 1021.21
1015.57 1015.45 1015.29 1015.45 1015.65 1015.77 1015.97 1016.25 1016.49 1016.65 1016.85 1016.97 1017.09 1017.17 1017.29 1017.53 1017.61 1017.69 1017.89 1018.33 1018.93 1019.33 1019.89 1020.73 1020.89 1020.45 1019.89 1019.81 1019.41 1018.77 1018.65 1018.69 1018.65 1018.65 1018.81 1018.69 1018.93 1018.97 1018.77 1019.05 1019.41 1019.65 1019.77 1019.97 1020.01 1020.17 1020.13 1020.25 1020.25 1020.33 1020.53 1020.65 1020.61 1020.57 1020.41 1020.45 1020.53 1020.33 1020.45 1020.57 1020.45 1020.57 1020.73
1015.45 1015.41 1015.53 1015.69 1015.93 1016.13 1016.33 1016.49 1016.77 1017.09 1017.37 1017.49 1017.45 1017.37 1017.57 1017.77 1018.17 1018.53 1018.81 1019.17 1019.57 1020.01 1020.69 1021.49 1021.21 1020.89 1020.49 1020.09 1019.97 1019.61 1018.85 1018.77 1018.85 1018.85 1018.77 1018.85 1018.85 1018.81 1018.93 1019.01 1019.29 1019.41 1019.53 1019.65 1019.81 1020.05 1020.29 1020.41 1020.45 1020.53 1020.57 1020.57 1020.49 1020.61 1020.85 1020.81 1020.61 1020.45 1020.37 1020.41 1020.45 1020.33 1020.37
1016.49 1016.53 1016.37 1016.49 1016.85 1017.05 1017.17 1017.25 1017.57 1017.85 1018.17 1018.13 1018.05 1018.21 1018.41 1018.61 1018.97 1019.17 1019.41 1019.73 1020.05 1020.41 1020.93 1021.61 1021.29 1021.09 1020.89 1020.53 1020.21 1019.97 1019.09 1018.65 1018.93 1018.85 1018.81 1018.85 1018.65 1018.65 1018.85 1019.05 1019.25 1019.37 1019.41 1019.89 1019.77 1019.61 1019.89 1020.29 1020.61 1020.77 1020.77 1020.77 1020.73 1020.61 1020.49 1020.69 1020.93 1020.89 1020.65 1020.65 1020.49 1020.33 1020.21
1017.09 1017.25 1017.25 1017.45 1017.69 1017.93 1018.01 1018.13 1018.21 1018.29 1018.41 1018.61 1018.77 1018.89 1019.01 1019.29 1019.41 1019.65 1019.85 1020.05 1020.45 1020.93 1021.49 1021.77 1021.41 1021.01 1020.81 1020.61 1020.33 1020.17 1019.41 1018.81 1018.89 1018.81 1019.01 1019.05 1019.25 1019.33 1019.33 1019.29 1019.33 1019.57 1019.53 1019.73 1019.69 1019.65 1019.57 1019.77 1020.25 1020.49 1020.57 1020.49 1020.29 1020.33 1020.57 1020.57 1020.49 1020.65 1020.89 1020.77 1020.61 1020.57 1019.97
1018.09 1018.21 1018.05 1018.09 1018.21 1018.45 1018.57 1018.73 1018.77 1018.89 1018.89 1019.01 1019.21 1019.53 1019.69 1019.73 1019.93 1020.01 1020.09 1020.21 1020.53 1021.13 1021.85 1021.93 1021.45 1021.17 1020.93 1020.69 1020.41 1020.17 1019.49 1019.33 1019.13 1019.17 1019.17 1019.29 1019.41 1019.37 1019.49 1019.53 1019.53 1019.45 1019.49 1019.53 1019.85 1019.73 1019.69 1019.69 1019.73 1019.89 1020.01 1019.97 1019.97 1019.89 1019.89 1020.05 1020.25 1020.25 1020.29 1020.29 1020.25 1020.17 1020.09
1018.37 1018.53 1018.45 1018.57 1018.77 1019.01 1019.05 1019.13 1019.45 1019.41 1019.33 1019.73 1019.85 1019.89 1019.89 1019.89 1020.01 1020.13 1020.21 1020.33 1020.57 1020.97 1021.73 1022.01 1021.73 1021.45 1021.21 1020.89 1020.53 1019.89 1019.41 1019.53 1019.57 1019.45 1019.49 1019.53 1019.49 1019.33 1019.37 1019.45 1019.53 1019.53 1019.57 1020.33 1021.01 1020.77 1020.65 1020.37 1020.13 1020.01 1019.97 1019.89 1019.81 1019.69 1019.61 1019.41 1019.53 1019.69 1019.77 1019.81 1019.81 1019.89 1019.81
1018.73 1018.69 1018.89 1019.09 1019.37 1019.65 1019.85 1019.89 1019.93 1019.89 1020.05 1020.25 1020.45 1020.53 1020.53 1020.53 1020.41 1020.33 1020.45 1020.61 1020.81 1021.09 1021.65 1022.17 1022.05 1021.81 1021.53 1021.29 1020.61 1019.81 1019.49 1019.49 1019.45 1019.61 1019.61 1019.57 1019.53 1019.41 1019.45 1019.61 1019.81 1019.85 1020.49 1021.17 1021.77 1021.41 1021.25 1020.97 1020.49 1020.29 1020.01 1019.89 1019.81 1019.69 1019.57 1019.25 1019.37 1019.45 1019.53 1019.65 1019.81 1019.97 1020.09
1019.73 1019.53 1019.49 1019.73 1020.01 1020.21 1020.25 1020.29 1020.41 1020.29 1020.33 1020.53 1020.73 1020.97 1021.05 1021.09 1021.13 1021.13 1021.13 1021.09 1021.05 1021.33 1021.89 1022.41 1022.25 1022.17 1021.89 1021.61 1021.21 1020.41 1019.77 1019.49 1019.53 1019.61 1019.49 1019.49 1019.45 1019.29 1019.77 1020.09 1020.17 1020.17 1020.77 1021.97 1022.21 1021.97 1021.81 1021.37 1020.81 1020.45 1020.29 1020.17 1020.05 1019.93 1019.65 1019.29 1019.61 1020.25 1020.49 1020.49 1020.33 1020.25 1020.25
1020.41 1020.53 1020.37 1020.21 1020.21 1020.37 1020.45 1020.65 1020.77 1020.81 1020.57 1020.45 1020.53 1020.69 1020.85 1021.05 1021.33 1021.49 1021.57 1021.65 1021.57 1021.61 1022.13 1022.53 1022.49 1022.49 1022.33 1022.13 1021.81 1021.01 1020.29 1019.85 1019.73 1019.73 1019.69 1019.57 1019.49 1019.45 1020.17 1021.17 1021.41 1021.65 1022.17 1022.69 1022.57 1022.53 1022.49 1022.17 1021.49 1020.93 1020.61 1020.49 1020.29 1020.13 1019.85 1019.97 1020.17 1020.57 1020.81 1021.05 1020.89 1020.61 1020.33
1020.69 1020.85 1020.81 1020.61 1020.45 1020.45 1020.61 1020.69 1020.53 1020.45 1020.37 1020.33 1020.49 1020.53 1020.57 1020.77 1021.01 1021.25 1021.41 1021.45 1021.53 1021.45 1021.81 1022.61 1022.93 1022.93 1022.85 1022.61 1022.45 1021.85 1020.77 1020.45 1020.41 1020.45 1020.29 1020.13 1019.93 1019.73 1019.85 1021.33 1022.29 1022.69 1022.65 1022.73 1022.77 1022.77 1022.77 1022.85 1022.53 1022.01 1021.53 1020.93 1020.49 1020.29 1021.05 1021.01 1020.49 1020.37 1020.25 1020.33 1020.33 1020.37 1020.13
1021.37 1021.21 1021.17 1021.09 1020.89 1020.77 1020.81 1020.89 1020.85 1020.85 1020.81 1020.69 1020.61 1020.69 1020.77 1020.89 1021.05 1021.09 1021.13 1021.25 1021.49 1021.73 1021.97 1022.41 1023.33 1023.29 1023.29 1023.17 1022.97 1022.49 1021.41 1021.65 1021.69 1021.45 1021.05 1020.69 1020.33 1020.13 1019.77 1020.41 1021.89 1022.97 1022.93 1023.05 1023.09 1023.13 1023.21 1023.21 1023.25 1022.77 1022.09 1021.53 1021.09 1021.85 1022.05 1021.09 1020.57 1020.53 1020.13 1019.69 1019.53 1019.53 1019.25
1021.53 1021.53 1021.33 1021.09 1021.01 1021.09 1021.09 1021.05 1021.05 1021.05 1021.05 1021.13 1021.17 1021.21 1021.13 1020.93 1020.97 1021.13 1021.29 1021.33 1021.57 1022.05 1022.53 1022.65 1023.01 1023.53 1023.57 1023.53 1023.41 1023.29 1022.65 1022.97 1023.33 1022.77 1021.89 1021.21 1020.85 1020.49 1020.25 1020.41 1022.01 1022.57 1022.61 1022.81 1022.81 1022.77 1022.77 1022.89 1023.09 1022.89 1022.05 1022.01 1022.01 1022.09 1022.21 1021.93 1021.25 1020.49 1019.81 1019.41 1019.05 1018.93 1018.85
1021.73 1021.65 1021.65 1021.61 1021.57 1021.53 1021.37 1021.29 1021.29 1021.25 1021.29 1021.25 1021.21 1021.21 1021.17 1021.05 1020.89 1020.89 1020.93 1021.01 1021.29 1021.61 1022.13 1022.73 1022.89 1023.17 1023.53 1023.53 1023.61 1023.61 1023.73 1023.65 1023.61 1023.05 1022.41 1022.01 1021.61 1021.25 1021.01 1020.93 1021.93 1022.61 1022.69 1022.45 1022.37 1022.37 1022.53 1022.69 1022.61 1022.21 1022.13 1022.17 1022.17 1022.25 1022.21 1021.61 1021.25 1020.85 1020.33 1019.85 1019.69 1019.53 1019.13
1022.05 1021.89 1021.81 1021.73 1021.69 1021.73 1021.57 1021.41 1021.25 1021.29 1021.21 1021.05 1021.01 1020.93 1020.93 1020.97 1020.85 1020.89 1020.85 1020.97 1021.05 1021.25 1021.49 1022.17 1022.89 1023.01 1023.25 1023.49 1023.53 1023.61 1023.65 1023.73 1023.77 1023.49 1023.25 1022.61 1022.13 1021.81 1021.65 1022.25 1022.49 1022.61 1022.53 1022.49 1022.37 1022.17 1022.05 1022.25 1022.25 1022.09 1022.13 1022.17 1022.29 1022.37 1022.09 1021.45 1021.01 1020.65 1020.57 1020.29 1019.89 1019.45 1019.13
Wind_Speed
2 8 9 8 7 7 7 8 7 6 7 6 5 6 6 6 5 5 6 6 6 6 6 5 5 6 5 5 6 6 5 5 4 3 4 4 6 3 5 4 3 2 2 0 2 3 3 5 6 5 6 5 4 4 3 5 5 6 6 6 6 7 6
10 9 10 8 7 7 8 7 7 7 7 6 6 5 5 5 5 5 5 5 5 5 5 5 5 5 6 6 6 6 6 4 4 5 5 6 4 3 4 4 3 1 2 2 3 4 1 3 6 6 6 5 5 4 4 5 6 4 6 4 6 7 6
5 7 8 9 8 8 8 8 7 7 7 6 6 6 5 5 5 5 5 6 6 5 4 4 5 5 5 6 6 6 6 6 4 3 3 1 5 5 6 3 2 2 1 1 3 6 6 5 4 7 7 8 7 5 4 5 5 5 4 6 6 6 6
8 6 5 6 7 8 9 8 7 6 6 6 5 5 6 6 4 5 4 4 4 4 4 5 5 5 6 6 5 6 6 6 5 4 3 2 1 3 3 2 2 2 0 2 2 3 3 3 1 6 7 7 8 7 5 6 6 7 6 5 5 6 6
9 8 7 10 8 10 9 8 7 6 5 5 5 5 4 5 5 4 4 4 4 4 4 4 5 5 5 6 5 5 5 5 5 4 4 3 3 3 4 3 1 1 2 2 2 2 3 4 5 6 5 8 8 7 7 7 8 7 7 6 6 6 5
12 14 13 13 12 11 9 8 8 6 6 6 6 5 6 6 5 4 4 4 4 3 3 4 4 5 5 5 5 6 5 6 5 4 4 5 5 4 1 5 4 4 4 3 5 3 2 6 6 7 7 7 7 8 8 7 6 7 6 6 6 6 6
11 10 10 10 10 9 8 8 8 7 7 7 7 6 6 7 5 5 5 5 4 4 3 3 3 4 4 5 6 5 6 5 4 5 4 4 4 4 3 3 4 5 5 7 5 4 4 6 6 6 7 6 7 7 7 7 8 7 6 6 6 6 6
8 8 7 8 8 9 8 8 7 7 6 6 7 6 8 6 5 5 4 4 4 4 4 4 4 4 5 3 4 5 5 5 5 5 5 4 5 6 5 3 3 4 2 3 6 5 7 5 6 5 6 7 7 7 8 7 7 6 7 6 6 7 7
7 7 7 7 7 7 8 7 6 6 6 6 6 7 7 6 5 5 5 5 4 3 4 4 4 5 5 5 5 5 6 5 5 6 5 6 5 5 6 5 4 2 3 2 2 3 3 3 3 3 4 7 7 8 7 7 6 8 8 7 6 7 8
9 9 8 9 8 8 8 7 6 6 6 5 6 6 6 5 5 4 5 5 5 4 3 3 3 3 4 4 5 6 5 6 5 6 5 4 5 7 6 5 3 4 4 1 2 3 4 3 0 2 3 5 5 6 7 7 5 7 7 7 7 8 8
9 10 9 10 8 8 8 7 7 6 6 5 6 5 5 6 6 5 5 6 5 5 4 3 4 3 3 4 5 5 6 6 6 6 6 7 7 5 5 6 7 3 2 2 7 5 4 3 2 3 7 6 5 5 5 7 7 5 7 6 7 8 9
8 8 9 10 9 9 9 8 7 6 6 6 6 6 6 6 6 6 7 6 6 5 4 3 2 2 3 4 4 3 4 5 5 5 6 5 4 5 5 6 5 5 5 7 6 8 7 6 7 7 4 4 4 5 5 6 7 5 6 6 7 9 9
9 9 9 10 10 9 9 9 8 7 7 6 5 6 6 6 7 6 6 6 6 6 4 3 4 3 3 3 3 4 4 4 5 4 3 5 4 4 6 6 6 6 7 7 4 6 8 8 8 6 5 5 4 4 6 5 6 8 5 6 7 9 10
9 9 10 11 10 9 8 8 8 7 6 6 6 6 6 7 7 6 7 6 7 6 5 4 3 2 4 3 4 4 3 4 5 4 4 4 4 5 5 6 6 6 6 5 5 6 8 8 6 6 5 5 5 5 5 3 8 8 6 4 7 8 9
9 9 11 11 9 9 9 8 8 8 7 6 7 6 7 6 6 6 6 8 7 5 4 4 4 4 4 4 4 4 5 6 6 5 3 4 4 3 4 5 6 6 5 6 7 6 7 9 9 6 6 8 5 6 6 7 9 8 8 6 6 8 9
10 11 12 11 10 9 7 8 8 8 7 6 6 6 6 6 6 6 6 7 7 5 5 5 4 4 4 4 4 3 3 3 2 3 4 4 5 5 4 5 6 6 4 6 4 5 5 7 8 10 9 8 6 6 7 3 10 8 8 7 7 8 8
11 11 11 10 11 10 9 8 8 8 8 6 6 5 6 6 6 5 6 6 6 6 5 5 4 4 5 6 4 4 3 2 4 4 4 5 4 4 5 4 5 6 7 6 5 6 7 7 7 6 7 4 6 7 4 3 9 8 7 8 8 8 9
10 9 10 10 11 10 11 9 8 8 8 7 7 6 6 6 5 6 6 6 7 6 5 5 5 4 4 3 5 4 4 5 4 4 2 2 2 1 4 6 5 7 7 7 6 6 7 8 8 7 6 6 7 4 2 2 8 10 8 8 7 6 9
8 8 8 9 10 11 9 9 9 8 8 7 7 7 7 6 6 6 7 6 6 6 5 4 4 4 5 4 3 4 4 3 4 3 3 4 3 1 3 5 6 6 7 7 7 7 7 9 8 8 8 8 7 7 4 5 4 5 10 8 7 6 7
6 7 8 9 9 9 10 9 9 9 8 7 7 6 6 6 5 6 7 6 5 5 5 4 4 4 5 5 4 4 4 4 4 3 4 4 2 2 2 4 5 6 5 5 6 6 8 7 5 6 6 5 6 9 7 6 6 4 5 7 9 7 7
2 8 8 9 11 11 10 9 9 8 8 8 7 7 7 6 6 5 5 4 5 4 4 4 3 1 3 5 3 5 4 4 4 3 3 2 1 1 1 2 3 4 4 2 5 6 6 7 5 6 6 6 5 8 7 6 6 6 7 6 5 6 6
1 7 8 9 10 10 10 9 9 9 8 7 6 7 6 6 6 5 5 5 5 5 4 8 7 6 8 3 4 3 3 4 5 5 4 4 2 3 1 2 3 8 2 5 11 8 6 6 1 5 3 2 3 2 6 5 6 6 6 7 6 6 6
5 7 9 8 9 10 10 9 8 9 8 7 7 6 7 6 6 5 5 5 4 6 6 4 8 11 6 5 7 3 2 2 3 4 5 6 4 4 3 4 6 8 8 7 6 4 7 8 9 6 3 3 5 5 5 6 6 7 7 7 7 7 8
11 9 10 10 9 10 10 9 9 9 8 7 7 7 6 7 7 6 6 6 6 6 6 6 13 12 12 11 7 6 3 3 4 3 5 4 4 4 3 5 6 4 4 5 4 7 5 7 7 8 7 6 5 2 4 6 6 5 5 7 7 7 7
9 9 11 11 11 10 9 9 9 8 7 6 5 5 5 6 9 9 8 8 7 6 6 9 11 11 11 12 8 6 4 2 3 3 4 4 4 4 5 4 5 4 3 3 5 5 3 2 2 3 5 8 9 6 2 0 3 5 6 7 6 7 8
10 9 10 9 7 8 9 10 9 8 8 6 6 6 7 8 8 8 7 8 7 7 6 10 9 9 9 9 10 7 6 3 3 4 1 3 3 2 4 4 4 3 4 5 4 5 7 6 3 2 1 2 5 6 10 5 3 2 5 6 6 7 6
10 9 9 8 9 9 9 9 8 7 7 7 6 6 8 8 7 7 6 7 7 6 7 9 11 11 9 9 9 7 7 1 3 1 2 1 0 2 2 2 3 4 4 4 4 4 4 5 6 6 4 5 5 7 8 10 11 7 4 4 6 6 6
9 7 7 7 8 8 9 8 8 7 7 7 7 7 5 6 6 6 5 6 7 7 6 10 11 12 12 11 11 8 4 1 3 2 2 2 3 2 2 2 4 3 2 2 4 4 3 4 5 4 5 6 7 7 7 7 7 6 6 5 7 8 7
8 8 8 9 9 9 9 9 8 6 7 6 6 5 6 6 7 7 6 6 6 7 7 13 12 13 13 13 13 6 3 2 2 2 1 2 3 3 4 4 4 5 2 8 11 14 11 7 5 7 6 7 7 7 8 7 7 9 8 8 8 8 7
8 8 8 9 9 8 7 7 6 5 7 6 6 6 5 5 5 6 6 6 6 6 7 10 13 13 14 15 11 6 2 3 3 3 3 2 3 3 2 2 3 3 6 6 10 12 13 10 5 7 8 8 8 9 9 6 9 13 17 13 6 1 0
8 8 9 9 8 7 7 6 6 4 6 6 6 5 5 5 5 6 6 6 5 6 6 9 13 13 14 16 12 7 5 3 2 3 3 3 3 3 7 10 5 4 8 7 9 13 13 9 5 7 8 9 10 10 10 8 2 5 7 8 7 7 6
8 8 7 8 7 7 6 6 4 4 3 4 5 5 4 4 5 5 5 4 3 5 6 7 12 13 14 15 12 7 6 5 4 2 3 3 2 4 6 11 15 13 10 8 11 11 12 9 5 6 7 8 9 10 7 6 4 4 6 7 9 8 9
8 7 7 6 7 7 6 4 4 3 1 3 4 3 4 4 5 5 4 3 3 4 7 7 9 12 13 14 14 9 5 5 4 5 4 5 5 5 2 9 10 12 11 11 10 10 10 10 6 7 7 7 8 7 8 9 8 7 6 7 10 11 12
8 8 6 6 6 6 6 5 5 4 4 4 4 3 3 4 4 4 3 3 4 5 5 6 8 10 10 11 13 12 5 7 7 7 6 6 6 5 5 7 6 9 9 9 8 7 7 6 5 5 6 7 7 7 10 9 11 12 11 9 10 11 12
7 6 7 7 6 6 6 5 4 3 3 4 4 3 1 2 3 4 4 3 4 6 6 7 6 8 9 9 10 13 8 7 7 6 6 6 5 5 6 5 7 10 11 9 9 9 9 7 7 4 6 9 12 12 8 8 9 9 10 10 12 10 10
7 6 6 6 6 5 4 4 4 3 3 3 3 3 2 1 2 3 3 4 4 4 6 6 8 7 8 7 7 7 6 5 9 6 6 6 5 6 5 5 7 12 12 13 12 11 8 8 8 6 9 10 11 11 9 6 7 7 8 8 8 8 9
5 5 5 4 5 5 4 3 3 3 2 2 2 2 3 2 2 2 2 3 2 3 3 6 7 9 6 5 4 3 2 3 4 5 5 5 6 6 6 8 9 12 12 12 11 11 13 11 7 11 11 11 11 9 6 7 7 7 7 8 9 9 10
Wind_Direction
151 170 211 186 174 166 161 161 160 167 169 167 167 171 166 162 170 172 174 181 182 193 196 197 196 194 190 185 187 204 202 189 180 196 229 209 194 210 224 221 200 215 350 328 97 79 136 142 129 101 92 106 133 106 122 122 106 117 123 129 141 145 135
187 187 176 177 168 163 163 163 162 163 163 160 164 162 164 157 163 171 174 181 186 181 197 193 191 193 193 172 181 197 194 190 210 179 205 226 201 166 210 212 198 68 230 179 120 127 111 153 138 144 129 112 104 92 106 120 131 144 153 131 89 80 76
148 181 176 165 171 161 163 164 162 160 153 152 156 158 160 155 171 164 178 182 181 186 201 184 184 177 186 180 188 196 194 198 203 195 219 168 241 152 225 185 175 105 253 287 180 177 159 202 159 163 156 153 138 129 140 139 143 124 95 112 130 125 114
179 171 176 154 160 176 160 164 162 154 156 153 151 156 164 164 161 172 182 172 180 182 198 181 189 183 180 186 184 189 197 205 201 202 208 270 288 243 97 249 142 147 279 112 272 101 94 75 71 152 160 154 133 139 165 164 146 149 143 131 120 119 128
204 169 175 161 184 166 158 157 154 149 151 140 150 151 183 145 157 172 173 178 180 190 193 186 196 189 182 185 187 187 193 202 203 199 202 186 231 218 147 84 338 67 190 174 151 156 158 134 160 164 181 142 150 147 143 160 161 136 149 149 136 133 128
202 177 169 172 171 162 160 155 152 157 152 154 163 163 161 156 169 164 173 179 177 187 187 200 183 188 184 187 190 192 196 197 199 203 202 205 208 218 180 147 138 211 207 216 174 162 183 148 182 166 170 155 151 147 150 159 140 155 152 147 137 145 126
216 175 165 163 160 154 157 157 160 162 163 160 160 164 157 165 173 168 173 179 172 177 178 190 186 190 180 192 185 193 192 193 203 208 203 221 210 194 210 162 183 211 199 194 142 184 193 183 178 172 164 155 158 142 144 172 157 153 154 150 148 128 135
204 165 160 159 155 155 158 158 164 158 161 159 158 155 156 163 163 167 174 181 177 172 172 174 182 192 196 213 184 186 187 187 198 206 184 214 229 211 207 193 151 231 215 235 165 183 187 195 178 179 163 150 156 155 168 158 157 161 147 142 142 132 115
185 167 158 155 155 151 152 158 155 156 151 152 147 145 152 158 156 168 170 180 180 172 183 187 189 192 196 198 206 173 193 190 192 206 205 191 210 230 213 195 185 197 215 250 182 151 151 176 212 245 196 170 168 160 167 148 172 137 152 142 142 123 124
177 163 154 153 150 148 150 156 150 153 141 149 141 145 152 155 162 166 168 158 173 183 185 212 211 213 173 205 213 177 193 209 193 206 195 215 200 207 212 189 221 181 223 201 279 172 166 168 335 258 327 216 196 157 161 155 150 134 163 153 147 136 142
169 163 153 149 148 150 154 153 147 147 147 144 144 148 156 155 159 165 149 160 171 176 186 200 221 196 182 207 219 199 197 196 194 201 201 187 215 198 209 178 200 168 187 244 186 179 147 148 102 317 241 203 192 175 163 162 138 165 148 162 147 146 150
162 151 149 149 154 157 157 147 147 145 139 137 149 152 161 161 161 173 151 170 169 173 184 190 234 216 202 205 215 213 197 203 200 201 207 208 191 201 200 205 178 168 180 210 199 165 141 165 150 227 228 173 186 174 208 156 144 149 151 171 145 150 151
159 153 158 157 160 155 153 147 149 147 141 147 146 161 168 159 168 173 161 172 163 176 179 185 216 200 205 201 215 219 201 221 218 217 219 207 204 201 199 201 193 180 195 193 202 173 155 165 158 199 186 190 215 206 213 211 158 137 171 160 145 148 151
162 162 159 162 161 154 150 154 153 143 147 147 152 172 170 166 170 173 172 174 172 180 173 189 198 195 195 169 196 220 206 220 223 198 206 216 211 218 219 205 191 202 187 197 183 192 167 160 158 173 182 204 217 203 243 165 127 143 155 143 149 155 152
165 163 163 158 162 155 156 156 148 149 154 151 165 180 173 169 170 182 169 180 179 164 168 183 182 198 177 167 179 200 191 202 218 172 202 210 187 215 220 216 201 197 201 191 202 186 186 168 164 163 194 219 168 200 236 179 131 144 153 160 163 158 152
167 163 160 162 166 157 156 154 158 154 156 161 172 185 168 171 176 182 171 188 168 159 181 163 188 191 165 166 179 197 194 218 182 140 202 207 197 187 213 209 197 191 181 198 187 199 190 189 177 179 182 206 149 181 219 188 134 152 161 169 168 167 164
167 163 165 161 166 164 161 163 164 158 159 172 169 186 153 180 178 181 176 178 163 165 163 162 177 193 170 189 174 175 193 157 182 186 187 215 190 159 202 204 195 185 181 187 188 196 191 185 197 156 199 164 136 190 232 150 146 149 173 163 184 177 169
166 165 167 166 164 172 162 169 164 165 160 168 168 165 167 183 179 179 178 180 162 169 160 176 178 181 164 170 197 172 191 184 180 203 158 21 5 200 186 210 186 190 187 178 185 200 185 191 194 167 186 173 155 167 155 177 167 157 168 175 179 206 162
159 166 163 167 166 169 166 168 168 165 163 168 159 176 174 170 186 172 182 180 164 171 175 162 173 171 164 182 173 186 203 159 193 175 146 203 203 180 190 225 189 191 192 177 187 188 189 188 198 163 198 190 182 142 176 197 251 176 171 176 178 206 179
142 147 169 170 161 174 171 166 167 159 162 163 166 177 170 168 183 177 181 173 162 168 157 171 163 181 167 180 176 176 181 209 190 187 197 200 178 243 180 213 185 207 181 195 176 182 179 188 209 171 199 201 222 145 170 199 199 207 210 192 180 190 195
110 157 172 177 172 176 162 160 163 154 161 157 168 170 168 166 171 194 148 166 151 126 138 162 126 106 211 169 179 170 189 203 205 184 223 212 151 319 302 160 223 102 352 52 175 181 190 182 204 187 190 200 239 149 174 192 214 202 197 227 221 188 203
63 186 169 165 167 164 156 155 154 148 147 154 163 155 157 153 163 150 150 148 138 135 71 42 34 3 354 11 176 174 197 202 214 197 207 213 193 226 177 164 94 72 128 33 31 31 39 21 195 201 193 210 251 194 182 198 210 223 219 218 217 223 216
174 172 152 170 165 158 164 156 142 141 144 148 149 142 147 147 137 139 137 132 112 58 45 47 7 8 8 353 326 198 160 230 212 226 210 208 199 223 187 94 71 93 107 109 88 11 33 34 30 30 10 213 209 220 211 223 220 216 223 221 220 221 220
173 162 154 156 154 153 147 141 142 143 147 150 147 150 147 154 159 156 139 110 76 61 44 16 356 360 351 357 346 345 173 202 212 210 215 236 199 204 219 126 114 110 106 84 90 56 39 34 26 16 14 19 30 16 248 217 224 251 230 223 224 223 226
166 154 156 147 140 131 127 123 111 102 98 108 124 133 117 80 68 63 71 73 70 67 60 18 1 3 352 347 352 333 301 143 216 216 206 214 207 196 204 169 162 157 148 62 124 152 131 116 58 16 7 352 348 339 84 298 272 240 232 242 235 231 224
63 65 70 79 83 98 91 94 93 90 81 69 74 103 98 81 76 70 76 85 76 62 65 17 3 8 355 341 340 333 287 172 209 212 207 244 287 195 188 183 185 207 126 107 217 194 171 165 171 135 256 295 275 281 293 276 211 239 335 311 267 248 251
64 51 67 72 69 66 67 70 76 76 82 75 64 62 72 83 84 77 80 87 80 66 44 4 5 7 5 348 338 336 292 160 270 166 197 227 155 256 274 261 211 200 198 196 231 249 265 181 159 184 192 214 227 210 221 251 262 255 216 257 282 281 265
58 53 59 66 75 75 68 60 59 57 58 55 63 64 69 86 101 119 106 91 89 69 43 11 15 13 7 355 342 314 298 293 251 195 209 191 223 249 241 269 293 299 249 243 3 6 255 270 252 243 239 230 232 238 223 216 212 228 228 236 249 258 269
71 66 64 64 63 59 58 59 50 44 69 78 80 92 94 99 110 107 101 95 93 74 49 22 15 16 9 359 335 283 247 234 269 290 252 246 254 240 237 235 239 242 306 59 11 20 19 354 304 274 261 253 254 248 247 233 204 199 222 226 231 238 252
68 74 72 77 76 70 65 63 66 66 70 72 71 68 66 60 59 80 91 91 83 79 58 24 19 16 12 4 348 340 329 262 231 220 235 231 243 243 236 13 12 334 68 59 20 23 14 1 297 279 268 270 262 258 257 238 190 196 203 213 229 233 190
52 52 66 72 72 69 65 61 59 58 86 88 81 72 75 65 45 39 46 54 59 77 64 37 28 19 13 8 354 333 322 283 260 289 254 221 262 259 84 59 35 33 72 51 29 35 16 359 295 284 280 276 277 271 266 273 339 348 358 340 315 298 292
50 43 53 62 74 79 76 77 80 59 48 98 110 118 116 106 93 76 62 68 54 87 85 52 36 27 15 14 4 338 328 314 299 307 313 299 260 275 103 55 52 52 63 50 38 35 29 8 334 305 308 291 277 273 292 341 322 256 255 293 292 280 271
60 58 46 53 62 69 76 71 62 84 144 132 121 131 136 122 121 117 135 135 105 85 92 74 47 38 23 14 7 346 329 340 344 351 320 317 320 309 107 108 69 60 59 44 37 28 23 22 355 334 318 301 284 288 6 333 317 307 267 225 249 252 251
46 48 55 58 58 61 62 61 53 48 45 47 72 87 90 103 110 121 116 109 90 60 45 77 70 52 39 24 15 3 355 21 4 347 334 321 301 297 287 95 94 63 54 46 41 28 24 13 2 317 301 285 311 348 329 315 316 321 300 274 246 248 254
40 41 39 46 56 60 58 60 69 66 69 76 86 82 90 154 140 137 137 125 119 123 81 57 93 77 58 44 32 25 15 38 9 329 322 304 307 301 310 61 65 17 17 21 15 5 355 347 337 296 287 293 308 321 324 304 295 293 290 289 274 260 249
38 39 42 43 48 53 57 74 79 79 90 105 107 115 109 114 152 147 154 140 123 115 122 104 77 83 83 66 52 49 32 20 344 327 333 323 321 321 313 344 43 23 -0 354 347 344 338 330 305 285 284 296 302 317 318 297 302 298 289 289 294 294 296
45 44 44 49 56 54 50 58 70 75 83 109 111 117 116 136 147 140 155 122 113 102 119 115 89 80 84 79 68 50 15 350 341 359 335 306 309 308 332 355 346 351 346 337 327 323 320 305 275 271 282 287 293 297 286 285 275 275 280 277 274 273 269